{"data":{"norad_id":67206,"intl_designator":"2025-304Q","name":"STARLINK-36056","alt_names":[],"object_type":"PAYLOAD","status":"ACTIVE","operator":null,"country":"US","launch_date":"2025-12-17","launch_site_code":"AFWTR","launch_vehicle":null,"mission":null,"orbit_class":"UNKNOWN","rcs_meters":null,"size_class":null,"mass_kg":null,"dimensions":null,"purposes":["comms"],"wikipedia_slug":null,"has_3d_model":false,"image_url":null,"decayed_at":null,"tle_current":{"epoch":"2026-05-24T22:45:46.800576Z","epoch_age_seconds":73357,"freshness":"FRESH","line1":"1 67206U 25304Q   26144.94845834  .00002637  00000+0  22870-3 0  9996","line2":"2 67206  70.0017 342.3340 0002771 266.4658  93.6184 14.98335036 25270","mean_motion":14.98335036,"eccentricity":0.0002771,"inclination_deg":70.0017,"raan_deg":342.334,"arg_perigee_deg":266.4658,"mean_anomaly_deg":93.6184,"bstar":0.0002287,"rev_number":2527,"period_min":96.106676103915,"perigee_km":570.11442343876,"apogee_km":573.96621170816,"semimajor_km":6950.1773175735,"source":"CELESTRAK","updated_at":"2026-05-25T13:38:21.510681Z"}}}